Location: ??????????
(54.7560°N, 39.1389°E)
Time: 12:54:25
(UTC+00:00)

Cosmos 1869 Rocket - Pass Details

Date: 19 May 2025
Orbit: 599 x 626 km, 82.5° (Epoch: 20 June)

Event Time Altitude Azimuth Distance (km) Brightness Sun altitude
Rises 23:08:26 0° 345° (NNW) 2,926 7.8 -11.7°
Reaches altitude 10° 23:10:42 10° 340° (NNW) 2,015 6.8 -11.6°
Maximum altitude 23:15:03 52° 265° (W) 782 3.9 -11.3°
Enters shadow 23:18:37 15° 192° (SSW) 1,715 5.2 -11.1°
